DateTimeUTC,F1_A11,F1_S11,BsB_S11,BsG_S11,BsR_S11,BbsB_S11,BbsG_S11,BbsR_S11,BaB_A11,BaG_A11,BaR_A11,Tu_S11,T_S11,Uu_S11,U_S11,P_S11,T1_A11
2021-08-09T01:00:00Z,00000200,20000000,,,,,,,0000.05,-000.34,-000.44,18.5,25.3,06.2,04.1,0669.5,31.0
2021-08-09T01:01:00Z,00000200,20000000,,,,,,,0000.32,0000.03,0000.14,18.5,25.3,06.2,04.1,0669.5,31.0
2021-08-09T01:02:00Z,00000200,20000000,,,,,,,-000.04,-000.06,0000.11,18.5,25.3,06.2,04.1,0669.5,31.0
2021-08-09T01:03:00Z,00000200,60000000,,,,,,,-000.28,0000.13,0000.19,18.5,25.3,06.2,04.1,0669.5,31.0
2021-08-09T01:04:00Z,00000200,40000000,0006.50,0004.03,0002.28,-000.36,0000.31,0000.01,-000.12,-000.35,0000.27,18.6,25.1,06.1,04.1,0670.4,31.0
2021-08-09T01:05:00Z,00000200,00000000,0005.45,0004.09,0002.60,0000.65,0000.50,0000.55,-000.53,-000.27,0000.45,18.6,25.1,06.2,04.2,0670.5,31.0
2021-08-09T01:06:00Z,00000200,00000000,0006.67,0004.09,0002.66,0000.84,0000.36,0000.25,-000.55,0000.08,-000.24,18.6,25.1,06.2,04.2,0670.5,31.0
2021-08-09T01:07:00Z,00000200,00000000,0005.24,0004.55,0002.62,0000.92,0000.48,0000.12,-000.41,-000.35,0000.48,18.6,25.1,06.0,04.1,0670.5,31.0
2021-08-09T01:08:00Z,00000200,00000000,0006.57,0004.84,0002.78,0000.66,0000.25,0000.43,-000.30,-000.29,0000.48,18.6,25.0,06.2,04.2,0670.5,31.0
2021-08-09T01:09:00Z,00000200,00000000,0005.94,0004.27,0003.01,0000.76,0000.44,0000.51,-000.56,0000.02,0000.20,18.6,25.0,06.1,04.1,0670.5,31.0
2021-08-09T01:10:00Z,00000200,00000000,0006.07,0004.62,0002.97,0000.82,0000.49,0000.41,-000.51,-000.82,-000.17,18.6,25.0,06.1,04.1,0670.5,31.0
2021-08-09T01:11:00Z,00000200,00000000,0006.40,0004.75,0002.53,0000.39,0000.39,0000.51,-000.68,-000.35,0000.18,18.6,25.0,06.1,04.1,0670.5,31.0
2021-08-09T01:12:00Z,00000200,00000000,0005.79,0004.76,0003.28,0000.87,0000.43,0000.43,0000.00,-000.22,-000.04,18.6,25.0,06.0,04.1,0670.5,31.0
2021-08-09T01:13:00Z,00000200,00000000,0005.87,0004.78,0003.07,0000.78,0000.18,0000.29,-000.75,-000.36,0000.46,18.6,25.0,05.9,04.0,0670.5,31.0
2021-08-09T01:14:00Z,00000200,00000000,0005.93,0004.71,0003.06,0000.25,0000.53,0000.40,-000.59,-000.26,-000.23,18.6,25.0,05.8,03.9,0670.5,31.0
2021-08-09T01:15:00Z,00000200,00000000,0006.31,0004.98,0002.57,0000.24,0000.67,0000.19,-000.25,-000.69,0000.39,18.6,25.0,05.8,03.9,0670.5,31.0
2021-08-09T01:16:00Z,00000200,00000000,0006.37,0004.86,0003.01,0000.50,0000.28,0000.37,-000.62,0000.32,0000.21,18.6,25.0,05.7,03.9,0670.5,31.0
2021-08-09T01:17:00Z,00000200,00000000,0007.08,0004.62,0002.91,0000.30,0000.25,0000.33,-000.50,-000.12,0000.17,18.6,25.0,05.8,04.0,0670.5,31.0
2021-08-09T01:18:00Z,00000200,00000000,0006.45,0004.67,0002.78,0000.59,0000.53,0000.28,-000.24,-000.51,0000.41,18.6,25.0,05.8,03.9,0670.5,31.0
2021-08-09T01:19:00Z,00000200,00000000,0005.77,0005.19,0002.85,0000.56,0000.33,0000.62,-000.52,-000.52,-000.06,18.6,25.0,05.8,03.9,0670.5,31.0
2021-08-09T01:20:00Z,00000200,00000000,0006.55,0004.52,0002.94,0000.75,0000.60,0000.31,-000.41,0000.05,0000.35,18.6,25.0,05.7,03.9,0670.5,31.0
2021-08-09T01:21:00Z,00000200,00000000,0006.81,0004.49,0002.80,0000.56,0000.31,0000.84,-000.76,-000.66,-000.21,18.6,25.0,05.7,03.8,0670.5,31.0
2021-08-09T01:22:00Z,00000200,00000000,0005.69,0005.40,0003.48,0000.70,0000.23,0000.61,-000.20,-000.28,0000.10,18.6,25.0,05.6,03.8,0670.5,31.0
2021-08-09T01:23:00Z,00000200,00000000,0005.61,0004.17,0002.73,0000.69,0000.50,0000.37,-000.55,-000.54,0000.42,18.6,25.0,05.5,03.8,0670.5,31.0
2021-08-09T01:24:00Z,00000200,00000000,0005.58,0003.90,0002.69,0000.48,0000.18,0000.46,-000.61,-000.06,-000.10,18.7,25.0,05.6,03.8,0670.5,31.0
2021-08-09T01:25:00Z,00000200,00000000,0005.03,0003.84,0002.17,0001.05,0000.19,0000.37,-000.16,-000.19,0000.19,18.7,25.1,05.4,03.7,0670.5,31.0
2021-08-09T01:26:00Z,00000200,00000000,0004.87,0003.37,0002.23,0000.41,0000.19,0000.16,-000.49,-000.36,-000.06,18.8,25.1,05.3,03.6,0670.5,31.1
2021-08-09T01:27:00Z,00000200,00000000,0004.79,0003.38,0001.97,0000.96,0000.30,0000.41,-000.21,-000.14,0000.01,18.8,25.1,05.3,03.6,0670.5,31.1
2021-08-09T01:28:00Z,00000200,00000000,0004.31,0003.25,0002.23,0000.66,-000.10,0000.58,-000.17,-000.09,0000.52,18.9,25.1,05.3,03.6,0670.5,31.1
2021-08-09T01:29:00Z,00000200,00000000,0003.85,0003.00,0001.51,0000.06,0000.20,0000.28,0000.32,0000.05,0000.45,18.9,25.2,05.3,03.6,0670.5,31.1
2021-08-09T01:30:00Z,00000200,00000000,0002.90,0002.48,0001.49,0000.15,0000.29,0000.33,-000.13,0000.44,0000.34,18.8,25.1,05.4,03.7,0670.5,31.0
2021-08-09T01:31:00Z,00000200,00000000,0003.58,0002.50,0001.69,0000.54,0000.13,0000.40,-000.00,0000.45,0000.27,18.8,25.1,05.6,03.8,0670.5,31.0
2021-08-09T01:32:00Z,00000200,00000000,0003.67,0002.29,0001.77,0000.48,0000.27,0000.57,-000.35,-000.52,-000.15,18.8,25.1,05.5,03.7,0670.5,31.0
2021-08-09T01:33:00Z,00000200,00000000,0003.03,0002.04,0001.51,0000.42,0000.02,0000.31,-000.07,-000.28,0000.33,18.8,25.1,05.4,03.7,0670.6,31.0
2021-08-09T01:34:00Z,00000200,00000000,0002.91,0002.39,0001.52,0000.12,0000.17,0000.25,-000.29,-000.04,0000.29,18.8,25.1,05.4,03.7,0670.5,31.0
2021-08-09T01:35:00Z,00000200,00000000,0002.19,0001.83,0001.07,-000.34,0000.23,0000.06,-000.00,0000.45,0000.47,18.8,25.1,05.4,03.7,0670.5,31.0
2021-08-09T01:36:00Z,00000200,00000000,0003.30,0002.04,0001.10,0001.48,0000.29,0000.14,0000.14,-000.12,-000.23,18.8,25.1,05.5,03.7,0670.5,31.0
2021-08-09T01:37:00Z,00000200,00000000,0002.17,0001.87,0001.10,0000.25,0000.20,0000.20,0000.01,0000.06,0000.44,18.8,25.1,05.6,03.8,0670.5,31.0
2021-08-09T01:38:00Z,00000200,00000000,0002.32,0001.62,0001.00,0000.66,0000.18,-000.05,0000.14,-000.19,-000.15,18.8,25.1,05.5,03.7,0670.5,31.0
2021-08-09T01:39:00Z,00000200,00000000,0003.00,0002.25,0001.29,0000.75,0000.00,0000.45,-000.52,-000.12,0000.22,18.8,25.1,05.5,03.8,0670.5,31.0
2021-08-09T01:40:00Z,00000200,00000000,0002.91,0001.98,0001.07,0000.55,0000.28,0000.29,0000.33,0000.24,0000.38,18.7,25.1,05.5,03.7,0670.5,31.0
2021-08-09T01:41:00Z,00000200,00000000,0003.48,0002.31,0001.64,-000.02,0000.05,0000.06,-000.18,0000.06,0000.05,18.7,25.0,05.5,03.7,0670.5,31.0
2021-08-09T01:42:00Z,00000200,00000000,0002.63,0002.12,0001.23,0000.71,0000.22,0000.45,-000.01,0000.05,0000.14,18.7,25.1,05.5,03.7,0670.6,31.0
2021-08-09T01:43:00Z,00000200,00000000,0002.44,0002.44,0001.18,-000.06,-000.04,0000.42,-000.52,-000.04,0000.02,18.7,25.1,05.5,03.7,0670.6,31.0
2021-08-09T01:44:00Z,00000200,00000000,0003.34,0002.52,0001.26,0000.44,0000.27,0000.41,-000.33,-000.75,-000.00,18.7,25.0,05.3,03.6,0670.6,31.0
2021-08-09T01:45:00Z,00000200,00000000,0002.57,0002.21,0001.15,0000.52,0000.18,0000.38,0000.43,0000.61,0000.34,18.7,25.0,05.4,03.7,0670.6,31.0
2021-08-09T01:46:00Z,00000200,00000000,0003.38,0002.16,0001.40,0000.27,-000.07,0000.27,-000.02,-000.12,0000.54,18.7,25.0,05.5,03.7,0670.6,31.0
2021-08-09T01:47:00Z,00000200,00000000,0002.98,0002.05,0001.36,0000.34,0000.34,0000.48,-000.02,0000.17,-000.39,18.7,25.0,05.5,03.7,0670.6,31.0
2021-08-09T01:48:00Z,00000200,00000000,0002.26,0001.97,0000.91,0000.31,0000.11,0000.21,0000.10,0000.10,0000.62,18.7,25.0,05.5,03.7,0670.6,31.0
2021-08-09T01:49:00Z,00000200,00000000,0002.29,0002.03,0001.30,0000.11,0000.04,0000.56,0000.08,0000.14,0000.20,18.7,25.0,05.4,03.7,0670.6,31.0
2021-08-09T01:50:00Z,00000200,00000000,0002.99,0002.24,0001.00,0000.74,0000.24,0000.18,-000.34,-000.07,-000.04,18.7,25.0,05.4,03.7,0670.6,31.0
2021-08-09T01:51:00Z,00000200,00000000,0002.63,0001.98,0001.08,0000.26,0000.10,0000.21,0000.06,0000.08,0000.41,18.7,25.0,05.4,03.7,0670.6,31.0
2021-08-09T01:52:00Z,00000200,00000000,0002.24,0001.62,0000.78,0000.25,0000.16,0000.01,-000.38,-000.59,-000.05,18.6,25.0,05.4,03.7,0670.6,31.0
2021-08-09T01:53:00Z,00000200,00000000,0002.55,0001.76,0000.91,0001.02,0000.30,0000.14,0000.13,0000.46,0000.38,18.6,25.0,05.4,03.7,0670.6,31.0
2021-08-09T01:54:00Z,00000200,00000000,0002.98,0001.54,0000.75,0000.34,0000.21,0000.40,0000.12,-000.06,0000.32,18.6,25.0,05.4,03.7,0670.6,31.0
2021-08-09T01:55:00Z,00000200,00000000,0002.25,0001.83,0000.96,-000.10,0000.25,0000.21,0000.07,0000.25,-000.25,18.6,25.0,05.4,03.7,0670.6,31.0
2021-08-09T01:56:00Z,00000200,00000000,0001.74,0001.94,0001.14,0000.47,0000.13,0000.34,0000.10,0000.26,0000.70,18.6,25.0,05.4,03.7,0670.6,31.0
2021-08-09T01:57:00Z,00000200,40000000,,,,,,,-000.00,-000.28,-000.17,18.7,25.0,04.8,03.3,0670.6,31.0
2021-08-09T01:58:00Z,00000200,60000000,,,,,,,0000.10,-000.29,0000.19,18.4,25.1,05.6,03.7,0669.6,31.0
2021-08-09T01:59:00Z,00000200,20000000,,,,,,,-000.23,0000.18,-000.24,18.3,25.2,05.6,03.7,0669.6,31.0
